Date String (YYYY-MM-DD hh:mm:ss) UTC,Instrument flags,absolute air pressure of the measurement (hPa),sample flow rate (lpm),inlet stack bypass flow (lpm),air temperature of the measurement (°C),ambient temperature measured by the external sensor (°C),aerosol sample conditioner tube jacket temperature (°C),OPC LED temperature (°C),internal box temperature (°C),relative humidity of the measurement (%),span deviation,mass concentration of particles derived from Lorenz-Mie calculation of OPC scattering (μg/m³),mass concentration of particles derived from Lorenz-Mie calculation of OPC scattering (μg/m³),mass concentration of particles derived from Lorenz-Mie calculation of OPC scattering (μg/m³)
DateTimeUTC,F1_M11,P_M11,Q1_M11,Q2_M11,T1_M11,T2_M11,T3_M11,T4_M11,T5_M11,U1_M11,ZSPAN_M11,X0_M11,X2_M11,X1_M11
2024-03-19 01:00:00,SystemResetWarning,0831.6,5.00,000.00,023.6,022.8,000.0,032.0,025.4,12.8,0000.0,0006.50,0002.58,0001.84
2024-03-19 01:01:00,SystemResetWarning,0831.6,5.00,000.00,023.6,022.8,000.0,032.0,025.4,12.8,0000.0,0006.61,0002.58,0001.82
2024-03-19 01:02:00,SystemResetWarning,0831.6,5.00,000.00,023.6,022.8,000.0,032.1,025.4,12.7,0000.0,0006.21,0002.60,0001.82
2024-03-19 01:03:00,SystemResetWarning,0831.6,5.00,000.00,023.6,022.8,000.0,032.1,025.4,12.8,0000.0,0006.37,0002.60,0001.82
2024-03-19 01:04:00,SystemResetWarning,0831.7,4.99,000.00,023.6,022.8,000.0,032.1,025.4,12.9,0000.0,0007.64,0002.61,0001.83
2024-03-19 01:05:00,SystemResetWarning,0831.6,4.99,000.00,023.6,022.8,000.0,032.1,025.4,12.8,0000.0,0007.74,0002.64,0001.84
2024-03-19 01:06:00,SystemResetWarning,0831.6,5.00,000.00,023.6,022.8,000.0,032.1,025.4,12.7,0000.0,0007.99,0002.66,0001.85
2024-03-19 01:07:00,SystemResetWarning,0831.6,5.00,000.00,023.6,022.8,000.0,032.1,025.4,12.8,0000.0,0007.90,0002.70,0001.85
2024-03-19 01:08:00,SystemResetWarning,0831.6,5.01,000.00,023.6,022.8,000.0,032.1,025.4,13.0,0000.0,0007.54,0002.70,0001.85
2024-03-19 01:09:00,SystemResetWarning,0831.6,5.00,000.00,023.6,022.8,000.0,032.1,025.4,13.1,0000.0,0007.27,0002.69,0001.85
2024-03-19 01:10:00,SystemResetWarning,0831.6,5.00,000.00,023.6,022.8,000.0,032.1,025.4,13.0,0000.0,0007.08,0002.64,0001.83
2024-03-19 01:11:00,SystemResetWarning,0831.7,5.00,000.00,023.6,022.7,000.0,032.1,025.4,13.0,0000.0,0008.03,0002.65,0001.82
2024-03-19 01:12:00,SystemResetWarning,0831.6,5.00,000.00,023.6,022.7,000.0,032.1,025.3,13.0,0000.0,0008.39,0002.61,0001.80
2024-03-19 01:13:00,SystemResetWarning,0831.6,4.99,000.00,023.6,022.7,000.0,032.1,025.3,13.1,0000.0,0008.85,0002.57,0001.78
2024-03-19 01:14:00,SystemResetWarning,0831.6,5.00,000.00,023.6,022.7,000.0,032.1,025.3,13.2,0000.0,0008.90,0002.55,0001.76
2024-03-19 01:15:00,SystemResetWarning,0831.6,4.99,000.00,023.5,022.7,000.0,032.1,025.3,13.4,0000.0,0008.05,0002.53,0001.73
2024-03-19 01:16:00,SystemResetWarning,0831.6,5.00,000.00,023.5,022.7,000.0,032.1,025.3,13.4,0000.0,0007.97,0002.46,0001.70
2024-03-19 01:17:00,SystemResetWarning,0831.6,5.00,000.00,023.5,022.7,000.0,032.1,025.3,13.4,0000.0,0007.73,0002.49,0001.68
2024-03-19 01:18:00,SystemResetWarning,0831.6,5.01,000.00,023.5,022.7,000.0,032.1,025.3,13.5,0000.0,0007.72,0002.46,0001.66
2024-03-19 01:19:00,SystemResetWarning,0831.6,5.00,000.00,023.5,022.7,000.0,032.1,025.3,13.5,0000.0,0007.78,0002.46,0001.65
2024-03-19 01:20:00,SystemResetWarning,0831.6,5.00,000.00,023.5,022.7,000.0,032.1,025.3,13.5,0000.0,0007.92,0002.50,0001.65
2024-03-19 01:21:00,SystemResetWarning,0831.6,4.99,000.00,023.5,022.6,000.0,032.1,025.3,13.5,0000.0,0008.00,0002.50,0001.65
2024-03-19 01:22:00,SystemResetWarning,0831.6,4.99,000.00,023.5,022.6,000.0,032.1,025.3,13.6,0000.0,0006.88,0002.46,0001.63
2024-03-19 01:23:00,SystemResetWarning,0831.6,5.00,000.00,023.5,022.6,000.0,032.1,025.3,13.6,0000.0,0006.13,0002.45,0001.63
2024-03-19 01:24:00,SystemResetWarning,0831.6,5.01,000.00,023.5,022.6,000.0,032.0,025.3,13.6,0000.0,0005.61,0002.51,0001.64
2024-03-19 01:25:00,SystemResetWarning,0831.6,5.00,000.00,023.5,022.6,000.0,032.1,025.3,13.6,0000.0,0005.38,0002.61,0001.65
2024-03-19 01:26:00,SystemResetWarning,0831.6,5.00,000.00,023.5,022.6,000.0,032.1,025.3,13.6,0000.0,0006.98,0002.67,0001.64
2024-03-19 01:27:00,SystemResetWarning,0831.6,5.00,000.00,023.5,022.6,000.0,032.1,025.3,13.6,0000.0,0007.57,0002.69,0001.64
2024-03-19 01:28:00,SystemResetWarning,0831.6,4.99,000.00,023.5,022.6,000.0,032.0,025.3,13.6,0000.0,0007.96,0002.73,0001.64
2024-03-19 01:29:00,SystemResetWarning,0831.6,4.99,000.00,023.5,022.6,000.0,032.0,025.2,13.6,0000.0,0008.14,0002.77,0001.64
2024-03-19 01:30:00,SystemResetWarning,0831.6,5.00,000.00,023.5,022.6,000.0,032.0,025.3,13.6,0000.0,0008.20,0002.77,0001.63
2024-03-19 01:31:00,SystemResetWarning,0831.6,5.00,000.00,023.5,022.6,000.0,032.0,025.3,13.6,0000.0,0008.14,0002.72,0001.63
2024-03-19 01:32:00,SystemResetWarning,0831.6,5.00,000.00,023.5,022.5,000.0,032.0,025.2,13.6,0000.0,0007.99,0002.73,0001.62
2024-03-19 01:33:00,SystemResetWarning,0831.6,5.01,000.00,023.5,022.5,000.0,032.0,025.2,13.6,0000.0,0008.05,0002.76,0001.63
2024-03-19 01:34:00,SystemResetWarning,0831.6,5.00,000.00,023.4,022.5,000.0,032.0,025.2,13.6,0000.0,0008.06,0002.76,0001.63
2024-03-19 01:35:00,SystemResetWarning,0831.6,5.00,000.00,023.4,022.5,000.0,032.0,025.2,13.6,0000.0,0008.08,0002.73,0001.62
2024-03-19 01:36:00,SystemResetWarning,0831.6,4.99,000.00,023.4,022.5,000.0,032.0,025.2,13.7,0000.0,0007.96,0002.68,0001.62
2024-03-19 01:37:00,SystemResetWarning,0831.5,4.99,000.00,023.4,022.5,000.0,032.0,025.2,13.7,0000.0,0007.41,0002.63,0001.61
2024-03-19 01:38:00,SystemResetWarning,0831.6,5.00,000.00,023.4,022.5,000.0,032.0,025.2,13.7,0000.0,0006.56,0002.67,0001.62
2024-03-19 01:39:00,SystemResetWarning,0831.6,5.00,000.00,023.4,022.5,000.0,032.0,025.2,13.7,0000.0,0005.94,0002.63,0001.62
2024-03-19 01:40:00,SystemResetWarning,0831.6,5.01,000.00,023.4,022.5,000.0,032.0,025.2,13.7,0000.0,0006.34,0002.61,0001.63
2024-03-19 01:41:00,SystemResetWarning,0831.6,5.01,000.00,023.4,022.5,000.0,032.0,025.2,13.7,0000.0,0006.13,0002.63,0001.63
2024-03-19 01:42:00,SystemResetWarning,0831.6,5.00,000.00,023.4,022.4,000.0,032.0,025.2,13.8,0000.0,0006.13,0002.64,0001.64
2024-03-19 01:43:00,SystemResetWarning,0831.5,5.00,000.00,023.4,022.4,000.0,032.0,025.1,13.8,0000.0,0006.23,0002.61,0001.65
2024-03-19 01:44:00,SystemResetWarning,0831.5,5.00,000.00,023.4,022.4,000.0,032.0,025.1,13.8,0000.0,0006.22,0002.57,0001.65
2024-03-19 01:45:00,SystemResetWarning,0831.5,5.00,000.00,023.4,022.4,000.0,032.0,025.1,13.9,0000.0,0006.51,0002.57,0001.65
2024-03-19 01:46:00,SystemResetWarning,0831.5,5.00,000.00,023.3,022.4,000.0,032.0,025.1,13.9,0000.0,0007.21,0002.55,0001.66
2024-03-19 01:47:00,SystemResetWarning,0831.5,5.00,000.00,023.3,022.4,000.0,031.9,025.1,13.9,0000.0,0006.99,0002.47,0001.66
2024-03-19 01:48:00,SystemResetWarning,0831.5,5.01,000.00,023.3,022.4,000.0,031.9,025.1,13.9,0000.0,0006.70,0002.45,0001.68
2024-03-19 01:49:00,SystemResetWarning,0831.5,5.00,000.00,023.3,022.3,000.0,031.9,025.1,14.0,0000.0,0006.42,0002.39,0001.68
2024-03-19 01:50:00,SystemResetWarning,0831.4,5.01,000.00,023.3,022.3,000.0,031.9,025.1,13.9,0000.0,0006.84,0002.36,0001.67
2024-03-19 01:51:00,SystemResetWarning,0831.5,5.00,000.00,023.3,022.3,000.0,031.9,025.1,14.0,0000.0,0007.89,0002.28,0001.66
2024-03-19 01:52:00,SystemResetWarning,0831.5,5.00,000.00,023.3,022.3,000.0,031.9,025.1,13.9,0000.0,0008.26,0002.27,0001.66
2024-03-19 01:53:00,SystemResetWarning,0831.5,5.00,000.00,023.3,022.3,000.0,031.9,025.1,13.9,0000.0,0008.42,0002.29,0001.65
2024-03-19 01:54:00,SystemResetWarning,0831.5,5.00,000.00,023.3,022.3,000.0,031.9,025.1,13.9,0000.0,0008.36,0002.30,0001.65
2024-03-19 01:55:00,SystemResetWarning,0831.5,5.00,000.00,023.3,022.3,000.0,031.9,025.0,14.0,0000.0,0008.31,0002.28,0001.64
2024-03-19 01:56:00,SystemResetWarning,0831.5,5.01,000.00,023.3,022.3,000.0,031.9,025.0,14.1,0000.0,0009.07,0002.30,0001.65
2024-03-19 01:57:00,SystemResetWarning,0831.5,5.01,000.00,023.2,022.3,000.0,031.9,025.0,14.1,0000.0,0008.48,0002.29,0001.64
2024-03-19 01:58:00,SystemResetWarning,0831.5,4.98,000.00,023.2,022.3,000.0,031.9,025.0,14.1,0000.0,0008.50,0002.30,0001.63
2024-03-19 01:59:00,SystemResetWarning,0831.5,4.99,000.00,023.2,022.3,000.0,031.9,025.0,14.1,0000.0,0008.68,0002.27,0001.60
